Time,TemperatureF,DewpointF,PressureIn,WindDirection,WindDirectionDegrees,WindSpeedMPH,WindSpeedGustMPH,Humidity,HourlyPrecipIn,Conditions,Clouds,dailyrainin,SoftwareType,DateUTC
2013-03-18 00:00:00,30.6,22.3,30.17,SSE,158,0.4,4.5,71,0.00,,,0.00,WUHU216HW,2013-03-18 04:00:00,
2013-03-18 00:05:00,30.6,22.3,30.17,ESE,113,1.3,2.2,71,0.00,,,0.00,WUHU216HW,2013-03-18 04:05:00,
2013-03-18 00:10:00,30.6,22.3,30.17,East,90,2.2,2.2,71,0.00,,,0.00,WUHU216HW,2013-03-18 04:10:00,
2013-03-18 00:15:00,30.6,22.0,30.17,East,90,1.8,3.1,70,0.00,,,0.00,WUHU216HW,2013-03-18 04:15:00,
2013-03-18 00:20:00,30.6,22.0,30.17,East,90,1.3,4.7,70,0.00,,,0.00,WUHU216HW,2013-03-18 04:20:00,
2013-03-18 00:25:00,30.6,22.0,30.16,ESE,113,1.1,4.7,70,0.00,,,0.00,WUHU216HW,2013-03-18 04:25:00,
2013-03-18 00:30:00,30.6,22.0,30.16,ESE,113,2.5,3.4,70,0.00,,,0.00,WUHU216HW,2013-03-18 04:30:00,
2013-03-18 00:35:00,30.6,22.0,30.16,ESE,113,1.6,3.4,70,0.00,,,0.00,WUHU216HW,2013-03-18 04:35:00,
2013-03-18 00:40:00,30.6,22.0,30.16,East,90,1.1,6.9,70,0.00,,,0.00,WUHU216HW,2013-03-18 04:40:00,
2013-03-18 00:45:00,30.8,22.1,30.16,ESE,113,1.8,6.9,70,0.00,,,0.00,WUHU216HW,2013-03-18 04:45:00,
2013-03-18 00:50:00,30.8,22.1,30.16,ENE,68,4.0,4.5,70,0.00,,,0.00,WUHU216HW,2013-03-18 04:50:00,
2013-03-18 00:55:00,30.8,22.1,30.15,East,90,3.4,5.4,70,0.00,,,0.00,WUHU216HW,2013-03-18 04:55:00,
2013-03-18 01:00:00,30.8,22.1,30.15,ESE,113,2.7,5.4,70,0.00,,,0.00,WUHU216HW,2013-03-18 05:00:00,
2013-03-18 01:05:00,30.6,22.0,30.15,ESE,113,2.9,5.4,70,0.00,,,0.00,WUHU216HW,2013-03-18 05:05:00,
2013-03-18 01:10:00,30.6,22.0,30.15,ESE,113,3.1,4.5,70,0.00,,,0.00,WUHU216HW,2013-03-18 05:10:00,
2013-03-18 01:15:00,30.6,22.0,30.15,ESE,113,2.2,4.5,70,0.00,,,0.00,WUHU216HW,2013-03-18 05:15:00,
2013-03-18 01:20:00,30.6,22.0,30.15,East,90,2.0,3.6,70,0.00,,,0.00,WUHU216HW,2013-03-18 05:20:00,
2013-03-18 01:25:00,30.6,22.0,30.15,ESE,113,4.3,4.3,70,0.00,,,0.00,WUHU216HW,2013-03-18 05:25:00,
2013-03-18 01:30:00,30.8,22.1,30.15,SE,135,2.5,4.3,70,0.00,,,0.00,WUHU216HW,2013-03-18 05:30:00,
2013-03-18 01:35:00,31.0,22.3,30.15,NE,45,4.3,4.3,70,0.00,,,0.00,WUHU216HW,2013-03-18 05:35:00,
2013-03-18 01:40:00,31.0,22.3,30.14,East,90,1.6,4.3,70,0.00,,,0.00,WUHU216HW,2013-03-18 05:40:00,
2013-03-18 01:45:00,31.0,22.3,30.15,ESE,113,4.0,4.3,70,0.00,,,0.00,WUHU216HW,2013-03-18 05:45:00,
2013-03-18 01:50:00,31.0,22.3,30.15,ENE,68,3.1,5.4,70,0.00,,,0.00,WUHU216HW,2013-03-18 05:50:00,
2013-03-18 01:55:00,31.0,22.3,30.14,ESE,113,2.7,5.4,70,0.00,,,0.00,WUHU216HW,2013-03-18 05:55:00,
2013-03-18 02:00:00,31.0,22.3,30.14,ESE,113,4.7,5.4,70,0.00,,,0.00,WUHU216HW,2013-03-18 06:00:00,
2013-03-18 02:05:00,31.1,22.5,30.14,ENE,68,2.5,5.4,70,0.00,,,0.00,WUHU216HW,2013-03-18 06:05:00,
2013-03-18 02:10:00,31.1,22.5,30.14,ESE,113,2.0,2.7,70,0.00,,,0.00,WUHU216HW,2013-03-18 06:10:00,
2013-03-18 02:15:00,31.1,22.5,30.14,SE,135,2.2,2.7,70,0.00,,,0.00,WUHU216HW,2013-03-18 06:15:00,
2013-03-18 02:20:00,31.1,22.5,30.14,ESE,113,2.5,3.4,70,0.00,,,0.00,WUHU216HW,2013-03-18 06:20:00,
2013-03-18 02:25:00,31.1,22.5,30.14,SE,135,2.0,4.7,70,0.00,,,0.00,WUHU216HW,2013-03-18 06:25:00,
2013-03-18 02:30:00,31.1,22.5,30.13,ESE,113,4.0,4.7,70,0.00,,,0.00,WUHU216HW,2013-03-18 06:30:00,
2013-03-18 02:35:00,31.3,22.7,30.13,ESE,113,3.4,4.7,70,0.00,,,0.00,WUHU216HW,2013-03-18 06:35:00,
2013-03-18 02:40:00,31.3,22.7,30.12,ESE,113,1.8,4.7,70,0.00,,,0.00,WUHU216HW,2013-03-18 06:40:00,
2013-03-18 02:45:00,31.3,22.7,30.12,ESE,113,3.4,4.0,70,0.00,,,0.00,WUHU216HW,2013-03-18 06:45:00,
2013-03-18 02:50:00,31.3,22.7,30.12,East,90,1.6,4.0,70,0.00,,,0.00,WUHU216HW,2013-03-18 06:50:00,
2013-03-18 02:55:00,31.3,22.7,30.12,SE,135,1.6,4.0,70,0.00,,,0.00,WUHU216HW,2013-03-18 06:55:00,
2013-03-18 03:00:00,31.3,22.7,30.12,ESE,113,2.2,3.1,70,0.00,,,0.00,WUHU216HW,2013-03-18 07:00:00,
2013-03-18 03:05:00,31.3,22.7,30.12,ESE,113,1.3,3.8,70,0.00,,,0.00,WUHU216HW,2013-03-18 07:05:00,
2013-03-18 03:10:00,31.5,22.9,30.12,ESE,113,2.5,3.8,70,0.00,,,0.00,WUHU216HW,2013-03-18 07:10:00,
2013-03-18 03:15:00,31.7,22.7,30.12,ESE,113,3.4,3.6,69,0.00,,,0.00,WUHU216HW,2013-03-18 07:15:00,
2013-03-18 03:20:00,31.7,22.7,30.12,East,90,1.3,3.4,69,0.00,,,0.00,WUHU216HW,2013-03-18 07:20:00,
2013-03-18 03:25:00,31.7,22.7,30.12,ENE,68,1.6,3.1,69,0.00,,,0.00,WUHU216HW,2013-03-18 07:25:00,
2013-03-18 03:30:00,31.7,22.7,30.12,East,90,1.6,3.1,69,0.00,,,0.00,WUHU216HW,2013-03-18 07:30:00,
2013-03-18 03:35:00,31.9,22.9,30.12,ESE,113,2.5,4.0,69,0.00,,,0.00,WUHU216HW,2013-03-18 07:35:00,
2013-03-18 03:40:00,31.9,22.9,30.12,East,90,5.4,5.4,69,0.00,,,0.00,WUHU216HW,2013-03-18 07:40:00,
2013-03-18 03:45:00,31.9,22.9,30.12,ENE,68,3.8,5.4,69,0.00,,,0.00,WUHU216HW,2013-03-18 07:45:00,
2013-03-18 03:50:00,32.0,23.0,30.12,East,90,3.8,5.1,69,0.00,,,0.00,WUHU216HW,2013-03-18 07:50:00,
2013-03-18 03:55:00,32.0,23.4,30.12,ESE,113,4.0,4.0,70,0.00,,,0.00,WUHU216HW,2013-03-18 07:55:00,
2013-03-18 04:00:00,32.0,23.4,30.12,SE,135,2.5,4.0,70,0.00,,,0.00,WUHU216HW,2013-03-18 08:00:00,
2013-03-18 04:05:00,32.2,23.6,30.12,ESE,113,2.5,3.4,70,0.00,,,0.00,WUHU216HW,2013-03-18 08:05:00,
2013-03-18 04:10:00,32.2,23.6,30.12,ESE,113,2.5,3.4,70,0.00,,,0.00,WUHU216HW,2013-03-18 08:10:00,
2013-03-18 04:15:00,32.4,23.8,30.12,ESE,113,2.5,4.5,70,0.00,,,0.00,WUHU216HW,2013-03-18 08:15:00,
2013-03-18 04:20:00,32.4,23.8,30.12,East,90,5.4,5.6,70,0.00,,,0.00,WUHU216HW,2013-03-18 08:20:00,
2013-03-18 04:25:00,32.8,24.0,30.11,SE,135,3.4,5.6,70,0.00,,,0.00,WUHU216HW,2013-03-18 08:25:00,
2013-03-18 04:30:00,32.8,23.7,30.11,East,90,4.9,5.1,69,0.00,,,0.00,WUHU216HW,2013-03-18 08:30:00,
2013-03-18 04:35:00,32.9,23.9,30.11,ESE,113,2.7,5.1,69,0.00,,,0.00,WUHU216HW,2013-03-18 08:35:00,
2013-03-18 04:40:00,33.1,24.0,30.11,East,90,3.6,4.3,69,0.00,,,0.00,WUHU216HW,2013-03-18 08:40:00,
2013-03-18 04:45:00,33.1,24.4,30.11,East,90,3.4,4.3,70,0.00,,,0.00,WUHU216HW,2013-03-18 08:45:00,
2013-03-18 04:50:00,32.9,24.6,30.11,ESE,113,2.5,3.4,71,0.00,,,0.00,WUHU216HW,2013-03-18 08:50:00,
2013-03-18 04:55:00,32.9,24.8,30.11,SE,135,2.2,3.6,72,0.00,,,0.00,WUHU216HW,2013-03-18 08:55:00,
2013-03-18 05:00:00,32.8,24.7,30.11,ESE,113,1.8,3.6,72,0.00,,,0.00,WUHU216HW,2013-03-18 09:00:00,
2013-03-18 05:05:00,32.8,25.0,30.10,ESE,113,1.3,3.4,73,0.00,,,0.00,WUHU216HW,2013-03-18 09:05:00,
2013-03-18 05:10:00,32.8,25.4,30.10,SE,135,1.8,3.4,74,0.00,,,0.00,WUHU216HW,2013-03-18 09:10:00,
2013-03-18 05:15:00,32.8,26.0,30.10,East,90,2.5,5.1,76,0.00,,,0.00,WUHU216HW,2013-03-18 09:15:00,
2013-03-18 05:20:00,32.8,26.6,30.09,ENE,68,2.7,5.1,78,0.00,,,0.00,WUHU216HW,2013-03-18 09:20:00,
2013-03-18 05:25:00,32.6,26.8,30.09,SE,135,0.7,4.0,79,0.00,,,0.00,WUHU216HW,2013-03-18 09:25:00,
2013-03-18 05:30:00,32.6,27.5,30.09,ESE,113,4.3,4.3,81,0.00,,,0.00,WUHU216HW,2013-03-18 09:30:00,
2013-03-18 05:35:00,32.4,27.5,30.09,SE,135,1.1,5.4,82,0.00,,,0.00,WUHU216HW,2013-03-18 09:35:00,
2013-03-18 05:40:00,32.4,27.5,30.09,ESE,113,3.4,5.4,82,0.00,,,0.00,WUHU216HW,2013-03-18 09:40:00,
2013-03-18 05:45:00,32.4,27.8,30.09,SE,135,2.5,3.4,83,0.00,,,0.00,WUHU216HW,2013-03-18 09:45:00,
2013-03-18 05:50:00,32.4,28.7,30.09,South,180,2.7,6.9,86,0.00,,,0.00,WUHU216HW,2013-03-18 09:50:00,
2013-03-18 05:55:00,32.2,28.5,30.09,SE,135,3.6,7.2,86,0.00,,,0.00,WUHU216HW,2013-03-18 09:55:00,
2013-03-18 06:00:00,32.2,28.5,30.09,ESE,113,4.9,7.2,86,0.00,,,0.00,WUHU216HW,2013-03-18 10:00:00,
2013-03-18 06:05:00,32.2,28.8,30.08,SSE,158,2.5,6.5,87,0.00,,,0.00,WUHU216HW,2013-03-18 10:05:00,
2013-03-18 06:10:00,32.2,28.8,30.08,ESE,113,3.4,8.5,87,0.00,,,0.00,WUHU216HW,2013-03-18 10:10:00,
2013-03-18 06:15:00,32.0,28.6,30.08,East,90,6.0,8.5,87,0.00,,,0.00,WUHU216HW,2013-03-18 10:15:00,
2013-03-18 06:20:00,32.0,28.6,30.08,South,180,2.2,6.0,87,0.00,,,0.00,WUHU216HW,2013-03-18 10:20:00,
2013-03-18 06:25:00,32.0,28.6,30.08,ESE,113,3.6,4.7,87,0.00,,,0.00,WUHU216HW,2013-03-18 10:25:00,
2013-03-18 06:30:00,32.0,28.6,30.08,ESE,113,2.7,3.6,87,0.00,,,0.00,WUHU216HW,2013-03-18 10:30:00,
2013-03-18 06:35:00,32.0,28.6,30.08,SE,135,3.1,5.6,87,0.00,,,0.00,WUHU216HW,2013-03-18 10:35:00,
2013-03-18 06:40:00,32.0,29.0,30.07,East,90,6.9,8.1,88,0.00,,,0.00,WUHU216HW,2013-03-18 10:40:00,
2013-03-18 06:45:00,32.0,29.0,30.06,SW,225,5.4,9.8,88,0.00,,,0.00,WUHU216HW,2013-03-18 10:45:00,
2013-03-18 06:50:00,31.9,29.1,30.06,SE,135,4.7,9.8,89,0.00,,,0.00,WUHU216HW,2013-03-18 10:50:00,
2013-03-18 06:55:00,31.7,28.9,30.06,East,90,5.1,8.5,89,0.00,,,0.00,WUHU216HW,2013-03-18 10:55:00,
2013-03-18 07:00:00,31.7,28.9,30.06,ESE,113,4.7,8.5,89,0.00,,,0.00,WUHU216HW,2013-03-18 11:00:00,
2013-03-18 07:05:00,31.7,28.9,30.05,East,90,4.0,5.8,89,0.00,,,0.00,WUHU216HW,2013-03-18 11:05:00,
2013-03-18 07:10:00,31.9,29.1,30.05,SE,135,6.5,6.5,89,0.00,,,0.00,WUHU216HW,2013-03-18 11:10:00,
2013-03-18 07:15:00,31.9,29.1,30.05,ESE,113,5.8,6.5,89,0.00,,,0.00,WUHU216HW,2013-03-18 11:15:00,
2013-03-18 07:20:00,31.9,29.1,30.05,SE,135,2.2,5.8,89,0.00,,,0.00,WUHU216HW,2013-03-18 11:20:00,
2013-03-18 07:25:00,31.9,29.1,30.05,ESE,113,5.6,5.6,89,0.00,,,0.00,WUHU216HW,2013-03-18 11:25:00,
2013-03-18 07:30:00,32.0,29.3,30.04,SE,135,4.3,8.3,89,0.00,,,0.00,WUHU216HW,2013-03-18 11:30:00,
2013-03-18 07:35:00,32.0,29.3,30.04,SE,135,3.6,8.3,89,0.00,,,0.00,WUHU216HW,2013-03-18 11:35:00,
2013-03-18 07:40:00,32.0,29.3,30.04,ESE,113,2.5,4.7,89,0.00,,,0.00,WUHU216HW,2013-03-18 11:40:00,
2013-03-18 07:45:00,32.0,29.0,30.04,SE,135,2.9,5.8,88,0.00,,,0.00,WUHU216HW,2013-03-18 11:45:00,
2013-03-18 07:50:00,32.0,29.0,30.03,East,90,3.8,5.8,88,0.00,,,0.00,WUHU216HW,2013-03-18 11:50:00,
2013-03-18 07:55:00,32.0,29.0,30.04,ESE,113,2.0,5.4,88,0.00,,,0.00,WUHU216HW,2013-03-18 11:55:00,
2013-03-18 08:00:00,32.0,28.6,30.03,South,180,1.8,4.0,87,0.00,,,0.00,WUHU216HW,2013-03-18 12:00:00,
2013-03-18 08:05:00,32.0,28.6,30.03,ESE,113,3.4,4.5,87,0.00,,,0.00,WUHU216HW,2013-03-18 12:05:00,
2013-03-18 08:10:00,32.2,28.8,30.03,ESE,113,5.4,5.4,87,0.00,,,0.00,WUHU216HW,2013-03-18 12:10:00,
2013-03-18 08:15:00,32.2,28.5,30.02,South,180,5.1,5.8,86,0.00,,,0.00,WUHU216HW,2013-03-18 12:15:00,
2013-03-18 08:20:00,32.2,28.5,30.02,East,90,4.7,6.3,86,0.00,,,0.00,WUHU216HW,2013-03-18 12:20:00,
2013-03-18 08:25:00,32.2,28.5,30.02,SE,135,5.4,6.9,86,0.00,,,0.00,WUHU216HW,2013-03-18 12:25:00,
2013-03-18 08:30:00,32.2,28.5,30.02,SSW,203,2.0,6.9,86,0.00,,,0.00,WUHU216HW,2013-03-18 12:30:00,
2013-03-18 08:35:00,32.2,28.5,30.01,SE,135,1.8,5.1,86,0.00,,,0.00,WUHU216HW,2013-03-18 12:35:00,
2013-03-18 08:40:00,32.2,28.5,30.01,SE,135,4.7,5.1,86,0.00,,,0.00,WUHU216HW,2013-03-18 12:40:00,
2013-03-18 08:45:00,32.2,28.5,30.00,East,90,5.4,6.9,86,0.00,,,0.00,WUHU216HW,2013-03-18 12:45:00,
2013-03-18 08:50:00,32.2,28.3,30.00,SE,135,4.9,6.9,85,0.00,,,0.00,WUHU216HW,2013-03-18 12:50:00,
2013-03-18 08:55:00,32.2,28.3,29.99,ESE,113,3.8,6.9,85,0.00,,,0.00,WUHU216HW,2013-03-18 12:55:00,
2013-03-18 09:00:00,32.2,28.3,29.99,SE,135,5.4,6.9,85,0.00,,,0.00,WUHU216HW,2013-03-18 13:00:00,
2013-03-18 09:05:00,32.4,28.1,29.99,East,90,7.8,7.8,84,0.00,,,0.00,WUHU216HW,2013-03-18 13:05:00,
2013-03-18 09:10:00,32.4,27.8,29.99,ESE,113,3.8,7.8,83,0.00,,,0.00,WUHU216HW,2013-03-18 13:10:00,
2013-03-18 09:15:00,32.2,27.6,29.99,East,90,4.7,6.5,83,0.00,,,0.00,WUHU216HW,2013-03-18 13:15:00,
2013-03-18 09:20:00,32.4,27.8,29.99,ESE,113,4.3,6.5,83,0.00,,,0.00,WUHU216HW,2013-03-18 13:20:00,
2013-03-18 09:25:00,32.4,27.5,29.98,SE,135,3.6,6.3,82,0.00,,,0.00,WUHU216HW,2013-03-18 13:25:00,
2013-03-18 09:30:00,32.6,27.5,29.98,ESE,113,3.8,6.7,81,0.00,,,0.00,WUHU216HW,2013-03-18 13:30:00,
2013-03-18 09:35:00,32.6,27.5,29.98,East,90,9.4,9.4,81,0.00,,,0.00,WUHU216HW,2013-03-18 13:35:00,
2013-03-18 09:40:00,32.8,27.5,29.98,ESE,113,6.3,9.8,81,0.00,,,0.00,WUHU216HW,2013-03-18 13:40:00,
2013-03-18 09:45:00,32.8,27.3,29.98,SE,135,6.3,9.8,80,0.00,,,0.00,WUHU216HW,2013-03-18 13:45:00,
2013-03-18 09:50:00,32.9,27.5,29.98,South,180,2.7,8.3,80,0.00,,,0.00,WUHU216HW,2013-03-18 13:50:00,
2013-03-18 09:55:00,32.9,27.5,29.98,ESE,113,4.0,7.6,80,0.00,,,0.00,WUHU216HW,2013-03-18 13:55:00,
2013-03-18 10:00:00,33.1,27.6,29.98,ESE,113,3.1,6.3,80,0.00,,,0.00,WUHU216HW,2013-03-18 14:00:00,
2013-03-18 10:05:00,33.1,27.6,29.98,SE,135,3.8,6.0,80,0.00,,,0.00,WUHU216HW,2013-03-18 14:05:00,
2013-03-18 10:10:00,33.1,27.6,29.98,ESE,113,5.4,6.0,80,0.00,,,0.00,WUHU216HW,2013-03-18 14:10:00,
2013-03-18 10:15:00,33.3,27.5,29.97,ESE,113,4.0,7.4,79,0.00,,,0.00,WUHU216HW,2013-03-18 14:15:00,
2013-03-18 10:20:00,33.5,27.6,29.97,ESE,113,3.4,9.2,79,0.00,,,0.00,WUHU216HW,2013-03-18 14:20:00,
2013-03-18 10:25:00,33.5,27.6,29.97,ESE,113,4.0,9.2,79,0.00,,,0.00,WUHU216HW,2013-03-18 14:25:00,
2013-03-18 10:30:00,33.5,27.6,29.97,SE,135,1.8,8.3,79,0.00,,,0.00,WUHU216HW,2013-03-18 14:30:00,
2013-03-18 10:35:00,33.5,27.6,29.98,ESE,113,3.4,8.3,79,0.00,,,0.00,WUHU216HW,2013-03-18 14:35:00,
2013-03-18 10:40:00,33.5,27.9,29.98,SSW,203,1.8,6.0,80,0.00,,,0.00,WUHU216HW,2013-03-18 14:40:00,
2013-03-18 10:45:00,33.5,27.9,29.97,SE,135,4.7,7.4,80,0.00,,,0.00,WUHU216HW,2013-03-18 14:45:00,
2013-03-18 10:50:00,33.5,27.9,29.96,ESE,113,2.5,7.4,80,0.01,,,0.00,WUHU216HW,2013-03-18 14:50:00,
2013-03-18 10:55:00,33.5,28.5,29.95,East,90,4.9,6.9,82,0.01,,,0.00,WUHU216HW,2013-03-18 14:55:00,
2013-03-18 11:00:00,33.5,28.3,29.95,WSW,248,6.0,7.6,81,0.01,,,0.00,WUHU216HW,2013-03-18 15:00:00,
2013-03-18 11:05:00,33.5,28.5,29.95,ESE,113,2.9,7.6,82,0.02,,,0.02,WUHU216HW,2013-03-18 15:05:00,
2013-03-18 11:10:00,33.5,28.8,29.95,SE,135,4.0,6.9,83,0.03,,,0.02,WUHU216HW,2013-03-18 15:10:00,
2013-03-18 11:15:00,33.5,28.8,29.95,ESE,113,2.0,8.5,83,0.03,,,0.02,WUHU216HW,2013-03-18 15:15:00,
2013-03-18 11:20:00,33.5,28.8,29.95,ESE,113,2.2,8.5,83,0.04,,,0.03,WUHU216HW,2013-03-18 15:20:00,
2013-03-18 11:25:00,33.3,28.6,29.94,ESE,113,6.9,8.9,83,0.05,,,0.04,WUHU216HW,2013-03-18 15:25:00,
2013-03-18 11:30:00,33.3,28.9,29.94,ESE,113,3.8,8.9,84,0.06,,,0.05,WUHU216HW,2013-03-18 15:30:00,
2013-03-18 11:35:00,33.3,29.3,29.94,ESE,113,2.0,6.9,85,0.07,,,0.07,WUHU216HW,2013-03-18 15:35:00,
2013-03-18 11:40:00,33.1,29.1,29.94,SE,135,6.0,6.9,85,0.08,,,0.07,WUHU216HW,2013-03-18 15:40:00,
2013-03-18 11:45:00,33.1,29.1,29.93,East,90,5.4,6.9,85,0.09,,,0.09,WUHU216HW,2013-03-18 15:45:00,
2013-03-18 11:50:00,33.1,29.3,29.91,SE,135,4.3,9.6,86,0.10,,,0.11,WUHU216HW,2013-03-18 15:50:00,
2013-03-18 11:55:00,33.1,29.3,29.91,SE,135,4.9,9.6,86,0.12,,,0.13,WUHU216HW,2013-03-18 15:55:00,
2013-03-18 12:00:00,33.1,29.3,29.91,SE,135,5.6,8.5,86,0.11,,,0.13,WUHU216HW,2013-03-18 16:00:00,
2013-03-18 12:05:00,33.1,29.3,29.91,SE,135,3.8,8.5,86,0.11,,,0.14,WUHU216HW,2013-03-18 16:05:00,
2013-03-18 12:10:00,33.3,29.5,29.90,East,90,3.4,7.6,86,0.12,,,0.14,WUHU216HW,2013-03-18 16:10:00,
2013-03-18 12:15:00,33.1,29.3,29.91,East,90,4.5,6.5,86,0.14,,,0.16,WUHU216HW,2013-03-18 16:15:00,
2013-03-18 12:20:00,33.1,29.3,29.91,East,90,4.7,7.4,86,0.13,,,0.18,WUHU216HW,2013-03-18 16:20:00,
2013-03-18 12:25:00,33.1,29.6,29.91,SE,135,2.0,7.4,87,0.14,,,0.19,WUHU216HW,2013-03-18 16:25:00,
2013-03-18 12:30:00,33.1,29.6,29.90,ESE,113,2.2,8.5,87,0.13,,,0.19,WUHU216HW,2013-03-18 16:30:00,
2013-03-18 12:35:00,32.9,29.4,29.91,East,90,2.5,8.5,87,0.13,,,0.20,WUHU216HW,2013-03-18 16:35:00,
2013-03-18 12:40:00,33.1,29.6,29.91,SE,135,1.8,4.0,87,0.11,,,0.20,WUHU216HW,2013-03-18 16:40:00,
2013-03-18 12:45:00,33.1,29.6,29.91,SE,135,2.5,4.0,87,0.10,,,0.20,WUHU216HW,2013-03-18 16:45:00,
2013-03-18 12:50:00,32.9,29.8,29.90,SE,135,1.6,6.3,88,0.10,,,0.21,WUHU216HW,2013-03-18 16:50:00,
2013-03-18 12:55:00,32.9,29.8,29.90,SE,135,2.5,6.3,88,0.08,,,0.21,WUHU216HW,2013-03-18 16:55:00,
2013-03-18 13:00:00,32.9,30.1,29.90,SE,135,2.5,5.6,89,0.07,,,0.21,WUHU216HW,2013-03-18 17:00:00,
2013-03-18 13:05:00,32.9,30.1,29.90,SE,135,1.1,3.8,89,0.06,,,0.21,WUHU216HW,2013-03-18 17:05:00,
2013-03-18 13:10:00,33.1,30.3,29.91,SE,135,1.1,3.1,89,0.06,,,0.21,WUHU216HW,2013-03-18 17:10:00,
2013-03-18 13:15:00,32.9,30.1,29.91,SE,135,1.1,1.8,89,0.04,,,0.21,WUHU216HW,2013-03-18 17:15:00,
2013-03-18 13:20:00,32.9,30.1,29.91,SE,135,0.4,2.2,89,0.03,,,0.22,WUHU216HW,2013-03-18 17:20:00,
2013-03-18 13:25:00,32.9,30.1,29.90,SE,135,1.1,2.2,89,0.03,,,0.22,WUHU216HW,2013-03-18 17:25:00,
2013-03-18 13:30:00,32.9,30.1,29.90,SE,135,0.4,4.0,89,0.03,,,0.22,WUHU216HW,2013-03-18 17:30:00,
2013-03-18 13:35:00,33.1,30.5,29.89,SE,135,2.2,4.3,90,0.03,,,0.23,WUHU216HW,2013-03-18 17:35:00,
2013-03-18 13:40:00,33.1,30.5,29.89,SSW,203,1.3,4.3,90,0.03,,,0.23,WUHU216HW,2013-03-18 17:40:00,
2013-03-18 13:45:00,33.3,30.7,29.88,ESE,113,1.1,5.4,90,0.02,,,0.23,WUHU216HW,2013-03-18 17:45:00,
2013-03-18 13:50:00,33.5,31.1,29.88,SE,135,0.9,5.4,91,0.02,,,0.23,WUHU216HW,2013-03-18 17:50:00,
2013-03-18 13:55:00,33.5,31.1,29.87,ESE,113,3.1,4.3,91,0.02,,,0.23,WUHU216HW,2013-03-18 17:55:00,
2013-03-18 14:00:00,33.5,31.1,29.87,East,90,2.5,4.3,91,0.02,,,0.23,WUHU216HW,2013-03-18 18:00:00,
2013-03-18 14:05:00,33.7,31.2,29.87,SE,135,2.5,5.1,91,0.02,,,0.23,WUHU216HW,2013-03-18 18:05:00,
2013-03-18 14:10:00,33.8,31.4,29.87,ESE,113,1.6,5.1,91,0.03,,,0.24,WUHU216HW,2013-03-18 18:10:00,
2013-03-18 14:15:00,33.8,31.4,29.86,ENE,68,1.8,4.7,91,0.03,,,0.24,WUHU216HW,2013-03-18 18:15:00,
2013-03-18 14:20:00,33.8,31.4,29.86,SW,225,1.1,6.3,91,0.02,,,0.24,WUHU216HW,2013-03-18 18:20:00,
2013-03-18 14:25:00,34.2,31.8,29.86,SE,135,4.7,6.3,91,0.02,,,0.24,WUHU216HW,2013-03-18 18:25:00,
2013-03-18 14:30:00,34.2,31.8,29.86,ESE,113,2.9,5.4,91,0.02,,,0.24,WUHU216HW,2013-03-18 18:30:00,
2013-03-18 14:35:00,34.4,31.7,29.86,SE,135,4.5,6.0,90,0.01,,,0.24,WUHU216HW,2013-03-18 18:35:00,
2013-03-18 14:40:00,34.6,31.9,29.86,SE,135,1.6,6.0,90,0.02,,,0.24,WUHU216HW,2013-03-18 18:40:00,
2013-03-18 14:45:00,34.7,32.0,29.85,ESE,113,4.7,7.8,90,0.02,,,0.25,WUHU216HW,2013-03-18 18:45:00,
2013-03-18 14:50:00,34.9,32.2,29.84,SSW,203,4.3,7.8,90,0.02,,,0.25,WUHU216HW,2013-03-18 18:50:00,
2013-03-18 14:55:00,34.9,32.2,29.84,South,180,3.4,6.3,90,0.02,,,0.25,WUHU216HW,2013-03-18 18:55:00,
2013-03-18 15:00:00,35.1,32.4,29.84,SE,135,4.9,6.0,90,0.02,,,0.25,WUHU216HW,2013-03-18 19:00:00,
2013-03-18 15:05:00,35.3,32.3,29.84,SW,225,4.0,6.0,89,0.01,,,0.25,WUHU216HW,2013-03-18 19:05:00,
2013-03-18 15:10:00,35.5,32.5,29.83,ESE,113,5.6,5.6,89,0.02,,,0.26,WUHU216HW,2013-03-18 19:10:00,
2013-03-18 15:15:00,35.5,32.5,29.83,WNW,293,1.1,5.6,89,0.02,,,0.26,WUHU216HW,2013-03-18 19:15:00,
2013-03-18 15:20:00,35.6,32.7,29.82,SE,135,1.8,5.6,89,0.03,,,0.27,WUHU216HW,2013-03-18 19:20:00,
2013-03-18 15:25:00,35.6,32.4,29.82,ESE,113,2.9,5.6,88,0.03,,,0.27,WUHU216HW,2013-03-18 19:25:00,
2013-03-18 15:30:00,35.8,32.6,29.82,SSW,203,2.2,5.6,88,0.03,,,0.27,WUHU216HW,2013-03-18 19:30:00,
2013-03-18 15:35:00,36.0,32.4,29.82,ENE,68,6.3,6.3,87,0.04,,,0.28,WUHU216HW,2013-03-18 19:35:00,
2013-03-18 15:40:00,36.0,32.8,29.82,SSE,158,4.0,6.3,88,0.03,,,0.28,WUHU216HW,2013-03-18 19:40:00,
2013-03-18 15:45:00,36.4,32.8,29.82,SSW,203,4.7,8.5,87,0.03,,,0.28,WUHU216HW,2013-03-18 19:45:00,
2013-03-18 15:50:00,36.4,32.5,29.82,SSW,203,3.1,8.5,86,0.04,,,0.29,WUHU216HW,2013-03-18 19:50:00,
2013-03-18 15:55:00,36.4,32.2,29.81,ESE,113,5.1,6.9,85,0.04,,,0.29,WUHU216HW,2013-03-18 19:55:00,
2013-03-18 16:00:00,36.4,32.2,29.81,SSW,203,5.6,6.9,85,0.04,,,0.29,WUHU216HW,2013-03-18 20:00:00,
2013-03-18 16:05:00,36.4,32.2,29.81,East,90,4.3,6.9,85,0.03,,,0.29,WUHU216HW,2013-03-18 20:05:00,
2013-03-18 16:10:00,36.4,32.5,29.81,ESE,113,4.0,9.8,86,0.03,,,0.29,WUHU216HW,2013-03-18 20:10:00,
2013-03-18 16:15:00,36.4,32.5,29.81,ESE,113,2.7,9.8,86,0.04,,,0.30,WUHU216HW,2013-03-18 20:15:00,
2013-03-18 16:20:00,36.2,32.6,29.80,WSW,248,1.8,6.9,87,0.03,,,0.30,WUHU216HW,2013-03-18 20:20:00,
2013-03-18 16:25:00,36.0,32.4,29.80,SE,135,6.3,6.9,87,0.04,,,0.31,WUHU216HW,2013-03-18 20:25:00,
2013-03-18 16:30:00,36.0,32.4,29.80,East,90,2.9,6.9,87,0.04,,,0.31,WUHU216HW,2013-03-18 20:30:00,
2013-03-18 16:35:00,36.0,32.8,29.80,SE,135,2.2,6.7,88,0.03,,,0.31,WUHU216HW,2013-03-18 20:35:00,
2013-03-18 16:40:00,36.0,32.8,29.79,East,90,5.8,5.8,88,0.03,,,0.31,WUHU216HW,2013-03-18 20:40:00,
2013-03-18 16:45:00,36.0,33.0,29.78,WSW,248,3.1,5.8,89,0.03,,,0.32,WUHU216HW,2013-03-18 20:45:00,
2013-03-18 16:50:00,35.8,32.9,29.78,SE,135,1.3,5.8,89,0.03,,,0.32,WUHU216HW,2013-03-18 20:50:00,
2013-03-18 16:55:00,36.0,33.0,29.78,ESE,113,2.9,5.6,89,0.03,,,0.32,WUHU216HW,2013-03-18 20:55:00,
2013-03-18 17:00:00,36.0,33.0,29.78,ENE,68,3.6,5.6,89,0.03,,,0.32,WUHU216HW,2013-03-18 21:00:00,
2013-03-18 17:05:00,36.0,33.0,29.78,ESE,113,3.4,5.6,89,0.04,,,0.33,WUHU216HW,2013-03-18 21:05:00,
2013-03-18 17:10:00,36.2,33.0,29.78,SSW,203,2.9,7.6,88,0.03,,,0.33,WUHU216HW,2013-03-18 21:10:00,
2013-03-18 17:15:00,36.4,33.1,29.77,East,90,2.9,7.6,88,0.03,,,0.33,WUHU216HW,2013-03-18 21:15:00,
2013-03-18 17:20:00,36.4,32.8,29.77,SSE,158,2.5,4.7,87,0.03,,,0.33,WUHU216HW,2013-03-18 21:20:00,
2013-03-18 17:25:00,36.5,32.9,29.77,SSE,158,2.5,4.0,87,0.02,,,0.33,WUHU216HW,2013-03-18 21:25:00,
2013-03-18 17:30:00,36.7,33.1,29.78,SSE,158,1.1,4.3,87,0.02,,,0.33,WUHU216HW,2013-03-18 21:30:00,
2013-03-18 17:35:00,36.7,33.1,29.79,South,180,0.4,4.3,87,0.02,,,0.33,WUHU216HW,2013-03-18 21:35:00,
2013-03-18 17:40:00,36.9,33.3,29.79,SSW,203,2.5,3.6,87,0.03,,,0.34,WUHU216HW,2013-03-18 21:40:00,
2013-03-18 17:45:00,37.1,33.5,29.78,SE,135,2.9,2.9,87,0.02,,,0.34,WUHU216HW,2013-03-18 21:45:00,
2013-03-18 17:50:00,37.1,33.5,29.78,SSW,203,1.6,2.9,87,0.02,,,0.34,WUHU216HW,2013-03-18 21:50:00,
2013-03-18 17:55:00,37.3,33.7,29.77,ESE,113,3.4,4.5,87,0.02,,,0.34,WUHU216HW,2013-03-18 21:55:00,
2013-03-18 18:00:00,37.4,33.6,29.77,SSW,203,2.2,4.5,86,0.01,,,0.34,WUHU216HW,2013-03-18 22:00:00,
2013-03-18 18:05:00,37.4,33.6,29.76,East,90,3.4,3.4,86,0.02,,,0.35,WUHU216HW,2013-03-18 22:05:00,
2013-03-18 18:10:00,37.4,33.6,29.77,ESE,113,4.0,6.3,86,0.02,,,0.35,WUHU216HW,2013-03-18 22:10:00,
2013-03-18 18:15:00,37.6,33.5,29.76,ESE,113,0.7,6.3,85,0.02,,,0.35,WUHU216HW,2013-03-18 22:15:00,
2013-03-18 18:20:00,37.8,33.7,29.76,SE,135,5.4,5.4,85,0.02,,,0.35,WUHU216HW,2013-03-18 22:20:00,
2013-03-18 18:25:00,37.8,33.4,29.76,ENE,68,4.7,5.4,84,0.02,,,0.35,WUHU216HW,2013-03-18 22:25:00,
2013-03-18 18:30:00,38.0,33.6,29.76,SE,135,2.7,5.8,84,0.02,,,0.35,WUHU216HW,2013-03-18 22:30:00,
2013-03-18 18:35:00,38.0,33.6,29.76,ESE,113,6.0,6.5,84,0.02,,,0.36,WUHU216HW,2013-03-18 22:35:00,
2013-03-18 18:40:00,38.2,33.5,29.76,SE,135,3.8,6.5,83,0.02,,,0.36,WUHU216HW,2013-03-18 22:40:00,
2013-03-18 18:45:00,38.2,33.1,29.76,SSW,203,1.3,6.9,82,0.02,,,0.36,WUHU216HW,2013-03-18 22:45:00,
2013-03-18 18:50:00,38.3,33.7,29.76,ESE,113,1.8,6.9,83,0.02,,,0.36,WUHU216HW,2013-03-18 22:50:00,
2013-03-18 18:55:00,38.3,33.3,29.76,SSW,203,1.6,4.5,82,0.02,,,0.36,WUHU216HW,2013-03-18 22:55:00,
2013-03-18 19:00:00,38.5,33.5,29.76,SSW,203,2.5,4.5,82,0.02,,,0.37,WUHU216HW,2013-03-18 23:00:00,
2013-03-18 19:05:00,38.5,33.5,29.76,South,180,2.2,4.7,82,0.02,,,0.37,WUHU216HW,2013-03-18 23:05:00,
2013-03-18 19:10:00,38.5,33.5,29.76,ESE,113,4.3,8.5,82,0.02,,,0.37,WUHU216HW,2013-03-18 23:10:00,
2013-03-18 19:15:00,38.5,33.2,29.76,ESE,113,1.8,8.5,81,0.02,,,0.37,WUHU216HW,2013-03-18 23:15:00,
2013-03-18 19:20:00,38.7,33.4,29.76,ESE,113,6.3,6.9,81,0.02,,,0.37,WUHU216HW,2013-03-18 23:20:00,
2013-03-18 19:25:00,38.9,33.6,29.75,SW,225,3.1,6.9,81,0.02,,,0.37,WUHU216HW,2013-03-18 23:25:00,
2013-03-18 19:30:00,38.9,33.3,29.75,SSW,203,1.6,6.3,80,0.02,,,0.37,WUHU216HW,2013-03-18 23:30:00,
2013-03-18 19:35:00,38.9,33.6,29.75,SSW,203,1.1,5.6,81,0.02,,,0.38,WUHU216HW,2013-03-18 23:35:00,
2013-03-18 19:40:00,38.9,33.6,29.74,South,180,4.0,4.0,81,0.02,,,0.38,WUHU216HW,2013-03-18 23:40:00,
2013-03-18 19:45:00,38.9,33.6,29.74,SSE,158,1.8,4.0,81,0.02,,,0.38,WUHU216HW,2013-03-18 23:45:00,
2013-03-18 19:50:00,39.1,33.8,29.75,SSW,203,2.5,4.0,81,0.02,,,0.38,WUHU216HW,2013-03-18 23:50:00,
2013-03-18 19:55:00,39.1,33.8,29.75,South,180,2.5,4.0,81,0.02,,,0.38,WUHU216HW,2013-03-18 23:55:00,
2013-03-18 20:00:00,39.1,33.8,29.75,SE,135,1.3,5.6,81,0.01,,,0.38,WUHU216HW,2013-03-19 00:00:00,
2013-03-18 20:05:00,39.2,33.9,29.76,SSW,203,1.6,5.6,81,0.02,,,0.39,WUHU216HW,2013-03-19 00:05:00,
2013-03-18 20:10:00,39.2,33.9,29.75,SW,225,3.8,6.9,81,0.02,,,0.39,WUHU216HW,2013-03-19 00:10:00,
2013-03-18 20:15:00,39.2,33.9,29.75,ESE,113,1.8,6.9,81,0.02,,,0.39,WUHU216HW,2013-03-19 00:15:00,
2013-03-18 20:20:00,39.2,33.9,29.75,ESE,113,2.7,5.6,81,0.02,,,0.39,WUHU216HW,2013-03-19 00:20:00,
2013-03-18 20:25:00,39.2,33.9,29.74,SE,135,2.9,5.8,81,0.02,,,0.39,WUHU216HW,2013-03-19 00:25:00,
2013-03-18 20:30:00,39.2,33.9,29.74,SSW,203,2.0,5.8,81,0.02,,,0.39,WUHU216HW,2013-03-19 00:30:00,
2013-03-18 20:35:00,39.2,34.2,29.74,SSW,203,0.7,4.7,82,0.01,,,0.39,WUHU216HW,2013-03-19 00:35:00,
2013-03-18 20:40:00,39.2,34.2,29.74,South,180,1.1,4.5,82,0.02,,,0.40,WUHU216HW,2013-03-19 00:40:00,
2013-03-18 20:45:00,39.2,34.2,29.75,South,180,1.8,5.4,82,0.02,,,0.40,WUHU216HW,2013-03-19 00:45:00,
2013-03-18 20:50:00,39.2,34.2,29.74,SSW,203,1.3,5.4,82,0.02,,,0.40,WUHU216HW,2013-03-19 00:50:00,
2013-03-18 20:55:00,39.2,34.2,29.75,SSW,203,1.1,4.5,82,0.02,,,0.40,WUHU216HW,2013-03-19 00:55:00,
2013-03-18 21:00:00,39.2,34.2,29.74,SSW,203,1.8,4.9,82,0.01,,,0.40,WUHU216HW,2013-03-19 01:00:00,
2013-03-18 21:05:00,39.4,34.1,29.74,South,180,2.0,4.9,81,0.01,,,0.40,WUHU216HW,2013-03-19 01:05:00,
2013-03-18 21:10:00,39.4,34.1,29.75,NW,315,0.4,3.4,81,0.01,,,0.40,WUHU216HW,2013-03-19 01:10:00,
2013-03-18 21:15:00,39.4,34.1,29.74,South,180,2.5,3.4,81,0.02,,,0.41,WUHU216HW,2013-03-19 01:15:00,
2013-03-18 21:20:00,39.6,34.3,29.74,ESE,113,1.3,4.0,81,0.02,,,0.41,WUHU216HW,2013-03-19 01:20:00,
2013-03-18 21:25:00,39.6,34.0,29.74,ESE,113,2.7,4.5,80,0.02,,,0.41,WUHU216HW,2013-03-19 01:25:00,
2013-03-18 21:30:00,39.6,34.3,29.73,SE,135,3.8,4.7,81,0.02,,,0.41,WUHU216HW,2013-03-19 01:30:00,
2013-03-18 21:35:00,39.6,34.3,29.73,SSW,203,3.4,5.4,81,0.02,,,0.41,WUHU216HW,2013-03-19 01:35:00,
2013-03-18 21:40:00,39.6,34.0,29.73,ENE,68,1.6,5.4,80,0.01,,,0.41,WUHU216HW,2013-03-19 01:40:00,
2013-03-18 21:45:00,39.6,34.3,29.73,ESE,113,2.5,6.3,81,0.01,,,0.41,WUHU216HW,2013-03-19 01:45:00,
2013-03-18 21:50:00,39.8,34.5,29.73,SE,135,3.8,6.3,81,0.01,,,0.41,WUHU216HW,2013-03-19 01:50:00,
2013-03-18 21:55:00,39.8,34.5,29.73,SSW,203,1.8,6.0,81,0.01,,,0.41,WUHU216HW,2013-03-19 01:55:00,
2013-03-18 22:00:00,39.8,34.5,29.73,WSW,248,1.1,3.8,81,0.01,,,0.41,WUHU216HW,2013-03-19 02:00:00,
2013-03-18 22:05:00,39.8,34.5,29.73,SSE,158,1.8,4.5,81,0.02,,,0.42,WUHU216HW,2013-03-19 02:05:00,
2013-03-18 22:10:00,39.8,34.5,29.73,East,90,2.9,4.5,81,0.02,,,0.42,WUHU216HW,2013-03-19 02:10:00,
2013-03-18 22:15:00,39.8,34.5,29.73,ESE,113,3.1,4.0,81,0.01,,,0.42,WUHU216HW,2013-03-19 02:15:00,
2013-03-18 22:20:00,40.0,34.6,29.73,SSW,203,1.8,3.8,81,0.01,,,0.42,WUHU216HW,2013-03-19 02:20:00,
2013-03-18 22:25:00,40.0,34.3,29.73,SE,135,4.0,5.6,80,0.01,,,0.42,WUHU216HW,2013-03-19 02:25:00,
2013-03-18 22:30:00,40.0,34.6,29.72,SW,225,1.1,5.6,81,0.01,,,0.42,WUHU216HW,2013-03-19 02:30:00,
2013-03-18 22:35:00,40.0,34.6,29.73,SE,135,0.4,4.0,81,0.01,,,0.42,WUHU216HW,2013-03-19 02:35:00,
2013-03-18 22:40:00,40.0,34.6,29.72,SE,135,0.4,3.4,81,0.01,,,0.42,WUHU216HW,2013-03-19 02:40:00,
2013-03-18 22:45:00,40.0,34.6,29.72,South,180,2.5,2.5,81,0.01,,,0.42,WUHU216HW,2013-03-19 02:45:00,
2013-03-18 22:50:00,40.0,34.6,29.71,ESE,113,1.6,2.9,81,0.02,,,0.43,WUHU216HW,2013-03-19 02:50:00,
2013-03-18 22:55:00,40.1,34.7,29.71,SSW,203,1.8,2.9,81,0.02,,,0.43,WUHU216HW,2013-03-19 02:55:00,
2013-03-18 23:00:00,40.0,34.6,29.71,ESE,113,1.8,2.9,81,0.01,,,0.43,WUHU216HW,2013-03-19 03:00:00,
2013-03-18 23:05:00,40.1,35.1,29.71,SSW,203,1.8,4.3,82,0.01,,,0.43,WUHU216HW,2013-03-19 03:05:00,
2013-03-18 23:10:00,40.1,35.1,29.71,WSW,248,3.4,4.3,82,0.01,,,0.43,WUHU216HW,2013-03-19 03:10:00,
2013-03-18 23:15:00,40.3,35.2,29.71,SSW,203,2.0,3.8,82,0.01,,,0.43,WUHU216HW,2013-03-19 03:15:00,
2013-03-18 23:20:00,40.1,35.1,29.71,SSW,203,1.3,3.4,82,0.01,,,0.43,WUHU216HW,2013-03-19 03:20:00,
2013-03-18 23:25:00,40.1,35.1,29.71,SSW,203,1.1,3.4,82,0.01,,,0.43,WUHU216HW,2013-03-19 03:25:00,
2013-03-18 23:30:00,40.0,34.9,29.71,SE,135,0.9,3.1,82,0.01,,,0.43,WUHU216HW,2013-03-19 03:30:00,
2013-03-18 23:35:00,40.0,34.9,29.72,SSW,203,1.6,1.8,82,0.01,,,0.43,WUHU216HW,2013-03-19 03:35:00,
2013-03-18 23:40:00,40.0,34.9,29.72,SSW,203,0.2,1.8,82,0.01,,,0.43,WUHU216HW,2013-03-19 03:40:00,
2013-03-18 23:45:00,40.0,34.9,29.72,SSW,203,1.1,1.6,82,0.01,,,0.43,WUHU216HW,2013-03-19 03:45:00,
2013-03-18 23:50:00,40.0,34.9,29.72,SE,135,0.0,1.6,82,0.00,,,0.43,WUHU216HW,2013-03-19 03:50:00,
2013-03-18 23:55:00,40.0,35.2,29.72,SSE,158,0.2,1.3,83,0.00,,,0.43,WUHU216HW,2013-03-19 03:55:00,